EST,Max TemperatureF,Mean TemperatureF,Min TemperatureF,Max Dew PointF,MeanDew PointF,Min DewpointF,Max Humidity, Mean Humidity, Min Humidity, Max Sea Level PressureIn, Mean Sea Level PressureIn, Min Sea Level PressureIn, Max VisibilityMiles, Mean VisibilityMiles, Min VisibilityMiles, Max Wind SpeedMPH, Mean Wind SpeedMPH, Max Gust SpeedMPH,PrecipitationIn, CloudCover, Events, WindDirDegrees
2013-2-1,46,35,24,27,14,-8,69,40,11,30.37,30.19,29.99,10,10,10,16,8,32,0.00,0,Rain,277
2013-2-2,50,34,17,39,16,5,100,56,17,30.40,30.26,30.07,10,10,5,16,2,25,0.01,1,Rain,218
2013-2-3,55,42,28,39,31,21,100,72,36,30.07,29.98,29.89,10,10,4,17,6,24,0.00,2,Rain,252
2013-2-4,48,36,24,32,27,23,100,73,37,30.16,30.08,30.03,10,10,10,5,0,,0.00,0,Rain,187
2013-2-5,64,46,28,45,36,28,100,72,36,30.03,29.97,29.90,10,10,6,20,3,26,0.00,0,Rain,231
2013-2-6,66,49,32,48,34,25,100,70,21,30.22,30.12,30.00,10,7,0,7,1,,0.00,1,Rain-Thunderstorm,328
2013-2-7,46,42,39,45,37,27,100,81,49,30.26,30.14,29.93,10,8,2,15,4,25,0.36,2,Rain,34
2013-2-8,60,50,39,46,42,32,100,86,58,30.10,29.94,29.87,10,10,9,15,9,21,0.01,4,Rain,313
2013-2-9,59,42,26,34,24,10,100,63,16,30.34,30.25,30.10,10,10,4,10,3,,0.00,0,Rain,2
2013-2-10,60,45,30,50,34,18,100,69,23,30.44,30.33,30.21,10,9,3,7,1,,0.16,1,Rain,126
2013-2-11,62,56,50,63,57,50,100,98,88,30.21,30.07,30.00,10,9,4,12,5,18,0.11,5,Rain,204
2013-2-12,60,52,44,54,44,27,100,80,27,30.12,30.03,29.94,10,8,0,6,2,,0.10,0,Fog-Rain,273
2013-2-13,50,46,42,50,46,41,100,100,87,29.95,29.79,29.68,10,7,1,15,2,22,0.03,6,Rain,254
2013-2-14,51,40,28,41,34,28,100,87,50,30.09,30.01,29.89,10,8,4,5,1,,0.00,0,Rain,249
2013-2-15,62,44,26,41,32,27,100,77,27,30.11,30.03,29.95,10,9,3,9,1,,0.00,0,Rain,210
2013-2-16,42,34,26,39,34,27,100,94,70,30.01,29.94,29.84,10,9,0,15,3,28,0.25,4,Rain,2
2013-2-17,41,30,19,27,22,16,100,78,36,30.28,30.16,30.02,10,10,10,12,2,17,0.01,0,Rain,263
2013-2-18,55,37,19,30,23,18,100,67,28,30.40,30.32,30.26,10,10,10,7,1,,0.00,0,Rain,178
2013-2-19,50,39,28,48,37,27,100,97,80,30.25,30.06,29.92,10,8,1,13,1,21,0.15,3,Rain,228
2013-2-20,55,40,24,34,25,12,100,68,18,30.14,30.08,30.03,10,9,1,9,1,,0.00,0,,250
2013-2-21,59,42,26,34,24,14,100,54,20,30.23,30.16,30.09,10,10,10,5,0,,0.00,0,,35
2013-2-22,48,42,37,39,34,21,100,85,37,30.28,30.21,30.11,10,6,1,9,3,,0.11,6,Rain,44
2013-2-23,44,40,37,45,40,37,100,100,100,30.13,29.96,29.86,10,3,0,8,4,,0.39,7,Fog-Rain,10
2013-2-24,64,50,35,46,40,25,100,80,24,30.02,29.94,29.85,10,7,0,9,3,,0.00,3,Fog,273
2013-2-25,41,37,33,36,29,25,100,65,53,30.17,30.09,30.01,10,10,9,12,3,,0.00,1,,55
2013-2-26,50,42,35,50,41,27,100,97,61,30.05,29.77,29.57,10,6,1,12,5,22,0.64,7,Rain,40
2013-2-27,57,46,35,43,38,34,100,75,44,29.84,29.77,29.70,10,10,5,13,6,20,0.00,0,,227
2013-2-28,50,40,28,37,30,25,100,68,40,29.91,29.82,29.75,10,10,6,14,3,20,0.00,3,,279